Simultaneous Nadir Overpasses (SNOs) Predictions

Prediction of SNOs between GOES-15 and METOP-B Satellite Orbit:

Table of predicted SNOs for the next 14.0 days since TLE Epoch: 1/23/2021
Index Date Time (GOES-15) GOES-15 Lat,Lon METOP-B Lat,Lon Distance(km) Time Diff (sec)
1 01/23/2021 18:08:23 0.07,-127.85 0.52,-129.77 219.12 80
2 01/24/2021 17:50:24 0.09,-127.82 -0.60,-124.77 347.21 80
3 01/26/2021 06:06:44 -0.05,-127.74 -0.44,-129.37 186.18 80
4 01/27/2021 05:48:45 -0.08,-127.71 0.67,-124.37 380.07 80
5 01/28/2021 18:04:56 0.04,-127.68 0.32,-128.94 143.03 80
6 01/29/2021 17:46:56 0.07,-127.64 -0.74,-123.93 422.69 80
7 01/31/2021 06:03:17 -0.03,-127.55 -0.24,-128.53 111.84 80
8 02/01/2021 05:45:16 -0.06,-127.51 0.82,-123.53 453.94 80
9 02/02/2021 18:01:28 0.02,-127.48 0.18,-128.09 69.74 80
10 02/03/2021 17:43:28 0.05,-127.44 -0.93,-123.09 495.48 80
11 02/05/2021 05:59:49 -0.00,-127.34 -0.10,-127.69 40.48 80
